Location: Ailly
(50.0793°N, 1.9944°E)
Time: 05:52:54
(UTC+00:00)

USA 32 - Pass Details

Date: 15 January 2026
Orbit: 774 x 780 km, 85.0° (Epoch: 17 February)

Event Time Altitude Azimuth Distance (km) Brightness Sun altitude
Rises 06:08:32 0° 190° (S) 3,253 7.3 -14.9°
Reaches altitude 10° 06:10:53 10° 192° (SSW) 2,330 6.6 -14.6°
Maximum altitude 06:16:07 74° 277° (W) 817 4.0 -13.8°
Drops below altitude 10° 06:21:23 10° 3° (N) 2,347 6.4 -12.9°
Sets 06:23:46 0° 6° (N) 3,279 7.1 -12.6°
